Eastsound, WA
on Saturday, January 5, 2013

Saturday
Previous Day Next Day
Daily Summary
 ActualAverage (KBLI)Record (KBLI)
Temperature
Mean Temperature °F / °C 38°F / 3°C  
Max Temperature 48°F / 9°C 44°F / 7°C 61°F / 16°C (2006)
Min Temperature 39°F / 4°C 32°F / 0°C 2°F / -16°C (1982)
Degree Days
Heating Degree Days 22 27  
Month to date heating degree days 135  
Cooling Degree Days 0 0  
Month to date cooling degree days 0  
Year to date cooling degree days 0  
Moisture
Dew Point 39°F / 4°C   
Average Humidity 87    
Maximum Humidity 100    
Minimum Humidity 66    
Precipitation
Precipitation 0.02 in / 0.51 cm 0.15 in / 3.81 cm 1.06 in / 2.69 cm (2006)
Month to date precipitation 0.71  
Year to date precipitation 0.71  
Wind
Wind Speed 4 mph / 6 km/h   
Max Wind Speed 17 mph / 27 km/h   
Max Gust Speed 29 mph / 47 km/h   
Visibility 9 miles / 14 kilometers   
Events Rain   

Key: T is trace of precipitation, MM is missing value
Source: NWS Daily Summary
Time(PST)TemperatureDew PointHumidity Pressure Visibility Wind DirectionWind SpeedGust SpeedPrecipitationEvents Conditions
12:15 AM 39.2°F / 4.0°C 37.4°F / 3.0°C 93% 30.16 in / 1021.2 hPa 10.0 miles / 16.1 kilometers East 4.6 mph / 7.4 km/h - N/A   Clear
12:35 AM 39.2°F / 4.0°C 37.4°F / 3.0°C 93% 30.16 in / 1021.2 hPa 10.0 miles / 16.1 kilometers Calm Calm - N/A   Clear
12:55 AM 39.2°F / 4.0°C 37.4°F / 3.0°C 93% 30.16 in / 1021.2 hPa 10.0 miles / 16.1 kilometers Calm Calm - N/A   Clear
1:15 AM 39.2°F / 4.0°C 37.4°F / 3.0°C 93% 30.15 in / 1020.9 hPa 10.0 miles / 16.1 kilometers Calm Calm - N/A   Clear
1:35 AM 39.2°F / 4.0°C 37.4°F / 3.0°C 93% 30.14 in / 1020.5 hPa 10.0 miles / 16.1 kilometers East 5.8 mph / 9.3 km/h - N/A   Clear
2:15 AM 39.2°F / 4.0°C 37.4°F / 3.0°C 93% 30.16 in / 1021.2 hPa 10.0 miles / 16.1 kilometers Calm Calm - N/A   Clear
2:35 AM 39.2°F / 4.0°C 37.4°F / 3.0°C 93% 30.16 in / 1021.2 hPa 10.0 miles / 16.1 kilometers Calm Calm - N/A   Clear
2:55 AM 39.2°F / 4.0°C 39.2°F / 4.0°C 100% 30.16 in / 1021.2 hPa 10.0 miles / 16.1 kilometers Calm Calm - N/A   Clear
3:15 AM 39.2°F / 4.0°C 39.2°F / 4.0°C 100% 30.17 in / 1021.6 hPa 10.0 miles / 16.1 kilometers Calm Calm - N/A   Clear
3:35 AM 39.2°F / 4.0°C 39.2°F / 4.0°C 100% 30.17 in / 1021.6 hPa 9.0 miles / 14.5 kilometers Calm Calm - N/A Rain Light Rain
3:55 AM 39.2°F / 4.0°C 39.2°F / 4.0°C 100% 30.16 in / 1021.2 hPa 7.0 miles / 11.3 kilometers Calm Calm - N/A Rain Light Rain
4:15 AM 39.2°F / 4.0°C 39.2°F / 4.0°C 100% 30.16 in / 1021.2 hPa 5.0 miles / 8.0 kilometers Calm Calm - N/A Rain Light Rain
4:35 AM 39.2°F / 4.0°C 39.2°F / 4.0°C 100% 30.16 in / 1021.2 hPa 8.0 miles / 12.9 kilometers Calm Calm - N/A Rain Light Rain
4:55 AM 39.2°F / 4.0°C 39.2°F / 4.0°C 100% 30.16 in / 1021.2 hPa 7.0 miles / 11.3 kilometers Calm Calm - N/A Rain Rain
5:15 AM 39.2°F / 4.0°C 39.2°F / 4.0°C 100% 30.16 in / 1021.2 hPa 8.0 miles / 12.9 kilometers Calm Calm - N/A Rain Light Rain
5:35 AM 39.2°F / 4.0°C 39.2°F / 4.0°C 100% 30.16 in / 1021.2 hPa 7.0 miles / 11.3 kilometers Calm Calm - N/A Rain Light Rain
6:15 AM 39.2°F / 4.0°C 37.4°F / 3.0°C 93% 30.17 in / 1021.6 hPa 7.0 miles / 11.3 kilometers Calm Calm - N/A Rain Light Rain
6:35 AM 39.2°F / 4.0°C 37.4°F / 3.0°C 93% 30.17 in / 1021.6 hPa 8.0 miles / 12.9 kilometers North - - N/A Rain Light Rain
7:15 AM 39.2°F / 4.0°C 37.4°F / 3.0°C 93% 30.17 in / 1021.6 hPa 7.0 miles / 11.3 kilometers East 4.6 mph / 7.4 km/h - N/A Rain Light Rain
7:35 AM 39.2°F / 4.0°C 37.4°F / 3.0°C 93% 30.16 in / 1021.2 hPa 7.0 miles / 11.3 kilometers East 5.8 mph / 9.3 km/h - N/A Rain Light Rain
7:55 AM 39.2°F / 4.0°C 37.4°F / 3.0°C 93% 30.16 in / 1021.2 hPa 5.0 miles / 8.0 kilometers ENE 5.8 mph / 9.3 km/h - 0.01 in / 0.3 cm Rain Rain
8:15 AM 39.2°F / 4.0°C 37.4°F / 3.0°C 93% 30.16 in / 1021.2 hPa 5.0 miles / 8.0 kilometers ENE 3.5 mph / 5.6 km/h - N/A Rain Light Rain
8:35 AM 39.2°F / 4.0°C 37.4°F / 3.0°C 93% 30.16 in / 1021.2 hPa 6.0 miles / 9.7 kilometers East 5.8 mph / 9.3 km/h - N/A Rain Light Rain
8:55 AM 39.2°F / 4.0°C 39.2°F / 4.0°C 100% 30.17 in / 1021.6 hPa 7.0 miles / 11.3 kilometers East 4.6 mph / 7.4 km/h - N/A Rain Light Rain
9:15 AM 39.2°F / 4.0°C 39.2°F / 4.0°C 100% 30.16 in / 1021.2 hPa 4.0 miles / 6.4 kilometers ENE 8.1 mph / 13.0 km/h - 0.01 in / 0.3 cm Rain Rain
9:35 AM 39.2°F / 4.0°C 39.2°F / 4.0°C 100% 30.15 in / 1020.9 hPa 3.0 miles / 4.8 kilometers East 6.9 mph / 11.1 km/h - 0.01 in / 0.3 cm Rain Light Rain
9:55 AM 41.0°F / 5.0°C 39.2°F / 4.0°C 93% 30.14 in / 1020.5 hPa 5.0 miles / 8.0 kilometers Calm Calm - 0.01 in / 0.3 cm Rain Light Rain
10:15 AM 41.0°F / 5.0°C 41.0°F / 5.0°C 100% 30.12 in / 1019.9 hPa 4.0 miles / 6.4 kilometers ESE 5.8 mph / 9.3 km/h - N/A Rain Light Rain
10:35 AM 42.8°F / 6.0°C 41.0°F / 5.0°C 93% 30.14 in / 1020.5 hPa 10.0 miles / 16.1 kilometers Calm Calm - N/A   Partly Cloudy
10:55 AM 44.6°F / 7.0°C 41.0°F / 5.0°C 87% 30.11 in / 1019.5 hPa 10.0 miles / 16.1 kilometers North 5.8 mph / 9.3 km/h - N/A   Clear
11:15 AM 44.6°F / 7.0°C 39.2°F / 4.0°C 81% 30.11 in / 1019.5 hPa 10.0 miles / 16.1 kilometers Calm Calm - N/A   Clear
11:35 AM 46.4°F / 8.0°C 41.0°F / 5.0°C 81% 30.12 in / 1019.9 hPa 10.0 miles / 16.1 kilometers NNW 9.2 mph / 14.8 km/h - N/A   Clear
11:55 AM 44.6°F / 7.0°C 39.2°F / 4.0°C 81% 30.12 in / 1019.9 hPa 10.0 miles / 16.1 kilometers North 5.8 mph / 9.3 km/h - N/A   Partly Cloudy
12:15 PM 44.6°F / 7.0°C 41.0°F / 5.0°C 87% 30.12 in / 1019.9 hPa 10.0 miles / 16.1 kilometers North 3.5 mph / 5.6 km/h - N/A   Mostly Cloudy
12:35 PM 44.6°F / 7.0°C 39.2°F / 4.0°C 81% 30.11 in / 1019.5 hPa 10.0 miles / 16.1 kilometers NE 4.6 mph / 7.4 km/h - N/A   Partly Cloudy
12:55 PM 44.6°F / 7.0°C 39.2°F / 4.0°C 81% 30.09 in / 1018.8 hPa 10.0 miles / 16.1 kilometers SE 4.6 mph / 7.4 km/h - N/A   Clear
1:15 PM 46.4°F / 8.0°C 39.2°F / 4.0°C 76% 30.09 in / 1018.8 hPa 10.0 miles / 16.1 kilometers Calm Calm - N/A   Clear
1:35 PM 46.4°F / 8.0°C 39.2°F / 4.0°C 76% 30.08 in / 1018.5 hPa 10.0 miles / 16.1 kilometers SW 5.8 mph / 9.3 km/h - N/A   Clear
1:55 PM 44.6°F / 7.0°C 39.2°F / 4.0°C 81% 30.07 in / 1018.2 hPa 10.0 miles / 16.1 kilometers SSE 3.5 mph / 5.6 km/h - N/A   Clear
2:15 PM 46.4°F / 8.0°C 39.2°F / 4.0°C 76% 30.06 in / 1017.8 hPa 10.0 miles / 16.1 kilometers South 8.1 mph / 13.0 km/h 17.3 mph / 27.8 km/h N/A   Clear
2:35 PM 46.4°F / 8.0°C 39.2°F / 4.0°C 76% 30.06 in / 1017.8 hPa 10.0 miles / 16.1 kilometers South 13.8 mph / 22.2 km/h 24.2 mph / 38.9 km/h N/A   Clear
3:15 PM 46.4°F / 8.0°C 39.2°F / 4.0°C 76% 30.05 in / 1017.5 hPa 10.0 miles / 16.1 kilometers South 13.8 mph / 22.2 km/h 23.0 mph / 37.0 km/h N/A   Clear
3:35 PM 46.4°F / 8.0°C 39.2°F / 4.0°C 76% 30.04 in / 1017.2 hPa 10.0 miles / 16.1 kilometers South 13.8 mph / 22.2 km/h 25.3 mph / 40.7 km/h N/A   Partly Cloudy
3:55 PM 46.4°F / 8.0°C 39.2°F / 4.0°C 76% 30.04 in / 1017.2 hPa 10.0 miles / 16.1 kilometers South 15.0 mph / 24.1 km/h 28.8 mph / 46.3 km/h N/A   Partly Cloudy
4:15 PM 46.4°F / 8.0°C 39.2°F / 4.0°C 76% 30.04 in / 1017.2 hPa 10.0 miles / 16.1 kilometers South 15.0 mph / 24.1 km/h 21.9 mph / 35.2 km/h N/A   Mostly Cloudy
4:35 PM 46.4°F / 8.0°C 39.2°F / 4.0°C 76% 30.03 in / 1016.8 hPa 10.0 miles / 16.1 kilometers SSW 17.3 mph / 27.8 km/h 26.5 mph / 42.6 km/h N/A   Overcast
4:55 PM 46.4°F / 8.0°C 37.4°F / 3.0°C 71% 30.03 in / 1016.8 hPa 10.0 miles / 16.1 kilometers South 13.8 mph / 22.2 km/h 23.0 mph / 37.0 km/h N/A   Mostly Cloudy
5:15 PM 48.2°F / 9.0°C 37.4°F / 3.0°C 66% 30.03 in / 1016.8 hPa 10.0 miles / 16.1 kilometers South 15.0 mph / 24.1 km/h 24.2 mph / 38.9 km/h N/A   Mostly Cloudy
5:35 PM 48.2°F / 9.0°C 37.4°F / 3.0°C 66% 30.03 in / 1016.8 hPa 10.0 miles / 16.1 kilometers South 15.0 mph / 24.1 km/h 23.0 mph / 37.0 km/h N/A   Mostly Cloudy
5:55 PM 48.2°F / 9.0°C 37.4°F / 3.0°C 66% 30.03 in / 1016.8 hPa 10.0 miles / 16.1 kilometers South 15.0 mph / 24.1 km/h 24.2 mph / 38.9 km/h N/A   Mostly Cloudy
6:15 PM 46.4°F / 8.0°C 37.4°F / 3.0°C 71% 30.03 in / 1016.8 hPa 10.0 miles / 16.1 kilometers South 15.0 mph / 24.1 km/h 21.9 mph / 35.2 km/h N/A   Overcast
6:55 PM 46.4°F / 8.0°C 39.2°F / 4.0°C 76% 30.05 in / 1017.5 hPa 10.0 miles / 16.1 kilometers SSW 10.4 mph / 16.7 km/h - N/A   Mostly Cloudy
7:15 PM 46.4°F / 8.0°C 37.4°F / 3.0°C 71% 30.06 in / 1017.8 hPa 10.0 miles / 16.1 kilometers SSW 12.7 mph / 20.4 km/h 17.3 mph / 27.8 km/h N/A   Mostly Cloudy
7:35 PM 44.6°F / 7.0°C 39.2°F / 4.0°C 81% 30.06 in / 1017.8 hPa 10.0 miles / 16.1 kilometers South 6.9 mph / 11.1 km/h - N/A   Partly Cloudy
7:55 PM 44.6°F / 7.0°C 39.2°F / 4.0°C 81% 30.06 in / 1017.8 hPa 10.0 miles / 16.1 kilometers South 9.2 mph / 14.8 km/h - N/A   Clear
8:15 PM 44.6°F / 7.0°C 39.2°F / 4.0°C 81% 30.06 in / 1017.8 hPa 10.0 miles / 16.1 kilometers South 4.6 mph / 7.4 km/h - N/A Rain Light Rain
8:35 PM 44.6°F / 7.0°C 39.2°F / 4.0°C 81% 30.06 in / 1017.8 hPa 10.0 miles / 16.1 kilometers South 3.5 mph / 5.6 km/h - N/A   Clear
9:15 PM 44.6°F / 7.0°C 41.0°F / 5.0°C 87% 30.06 in / 1017.8 hPa 10.0 miles / 16.1 kilometers SSW 8.1 mph / 13.0 km/h - N/A Rain Light Rain
9:35 PM 42.8°F / 6.0°C 41.0°F / 5.0°C 93% 30.06 in / 1017.8 hPa 10.0 miles / 16.1 kilometers SSW 8.1 mph / 13.0 km/h - N/A   Scattered Clouds
9:55 PM 42.8°F / 6.0°C 41.0°F / 5.0°C 93% 30.07 in / 1018.2 hPa 10.0 miles / 16.1 kilometers SSW 8.1 mph / 13.0 km/h - N/A   Overcast
10:15 PM 42.8°F / 6.0°C 41.0°F / 5.0°C 93% 30.08 in / 1018.5 hPa 10.0 miles / 16.1 kilometers SSW 6.9 mph / 11.1 km/h - N/A   Overcast
10:35 PM 44.6°F / 7.0°C 41.0°F / 5.0°C 87% 30.08 in / 1018.5 hPa 10.0 miles / 16.1 kilometers South 5.8 mph / 9.3 km/h - N/A   Overcast
10:55 PM 42.8°F / 6.0°C 41.0°F / 5.0°C 93% 30.08 in / 1018.5 hPa 10.0 miles / 16.1 kilometers South 6.9 mph / 11.1 km/h - N/A   Mostly Cloudy
11:15 PM 41.0°F / 5.0°C 39.2°F / 4.0°C 93% 30.08 in / 1018.5 hPa 10.0 miles / 16.1 kilometers SSW 6.9 mph / 11.1 km/h - N/A   Partly Cloudy
11:35 PM 41.0°F / 5.0°C 39.2°F / 4.0°C 93% 30.08 in / 1018.5 hPa 10.0 miles / 16.1 kilometers South 3.5 mph / 5.6 km/h - N/A   Clear
11:55 PM 41.0°F / 5.0°C 37.4°F / 3.0°C 87% 30.08 in / 1018.5 hPa 10.0 miles / 16.1 kilometers South 3.5 mph / 5.6 km/h - N/A   Clear
Moon Phase
Jan. 05 Jan. 11 Jan. 18 Jan. 26 Feb. 03
Sunrise:08:03 AM (PST) Moon Rise:12:59 AM (PST)1/5
Sunset:04:30 PM (PST) Moon Set:11:38 AM (PST)1/5

Copyright © 2014 The Weather Underground, Inc.